Regional Weather Roundup
Issued by NWS

Home | Current Version | Previous Version | Graphics & Text | Print | Product List | Glossary On
Versions: 1 2 3 4 5 6 7 8 9 10 11 12 13 14 15 16 17 18 19 20 21 22 23 24 25 26 27 28 29 30 31 32 33 34 35 36 37 38 39 40 41 42 43 44 45 46 47 48 49 50
000
ASUS43 KDTX 241001
RWRMI
MICHIGAN HOURLY REGIONAL WEATHER ROUNDUP
NATIONAL WEATHER SERVICE DETROIT/PONTIAC MI
600 AM EDT TUE OCT 24 2017

NOTE: "FAIR" INDICATES FEW OR NO CLOUDS BELOW 12,000 FEET WITH NO
SIGNIFICANT WEATHER AND/OR OBSTRUCTION TO VISIBILITY.

MIZ047>049-052>055-059>063-066>070-074>076-081>083-241100-
SOUTHEAST LOWER MICHIGAN

CITY           SKY/WX    TMP DP  RH WIND       PRES   REMARKS
ADRIAN         CLOUDY    49  47  93 SW14      29.53F
ALMA           CLOUDY    46  43  91 SW8       29.45R
ANN ARBOR      CLOUDY    48  47  96 S7        29.52S
BAD AXE        CLOUDY    47  44  88 SW15G22   29.42R
CARO           MOCLDY    47  42  85 SW14G21   29.44R
DETROIT CITY   LGT RAIN  49  45  86 SW14G29   29.54R
DETROIT        LGT RAIN  49  47  93 S14       29.55R
FLINT          CLOUDY    48  44  86 SW8       29.49R
GROSSE ILE     CLOUDY    51  47  87 SW16G22   29.55S
HILLSDALE      CLOUDY    48  45  87 S8        29.50F
HOWELL         DRIZZLE   48  47  96 S10       29.49S

CITY           SKY/WX    TMP DP  RH WIND       PRES   REMARKS
JACKSON        CLOUDY    49  47  93 S10       29.49F
LAMBERTVILLE   CLOUDY    51  47  87 S9        29.56S
LANSING        LGT RAIN  48  46  93 S6        29.48S
LAPEER         MOCLDY    47  45  92 SW10      29.48R
MASON          CLOUDY    50  47  90 S6        29.49S FOG
MONROE         CLOUDY    50  47  87 S10       29.54F
MT. CLEMENS    CLOUDY    49  48  94 SW15      29.51R
PONTIAC        LGT RAIN  48  46  93 S9        29.50R
PORT HOPE        N/A     48  43  82 SW13G24   29.37R
PORT HURON     CLOUDY    48  43  81 S8        29.51R
TRI CITIES     CLOUDY    47  45  93 SW16      29.43R
MIDLAND        FAIR      46  43  90 SW9       29.40S
TROY           LGT RAIN  49  46  88 SW12G18   29.54S
SAGINAW HB     MOCLDY    46  43  87 SW13      29.43S
$$
MIZ043>046-050>051-056>058-064>065-071>073-077>080-241100-
SOUTHWEST LOWER MICHIGAN

CITY           SKY/WX    TMP DP  RH WIND       PRES   REMARKS
BATTLE CREEK   LGT RAIN  50  49  96 S13       29.47F
BENTON HARBOR  LGT RAIN  52  47  83 W16G25    29.48S
BIG RAPIDS     CLOUDY    45  42  91 W7        29.41S
COLDWATER      CLOUDY    49  49  99 S7        29.49F
FREMONT        DRIZZLE   46  45  98 SW6       29.43S
HOLLAND        LGT RAIN  50  46  86 E7        29.45F
GRAND RAPIDS   LGT RAIN  48  48 100 S6        29.45F
IONIA          LGT RAIN  47  46  95 S6        29.45F
KALAMAZOO      LGT RAIN  50  47  89 S10       29.48S
LUDINGTON      LGT RAIN  46  44  91 NW6       29.42S
MARSHALL       CLOUDY    49  48  99 S7        29.48F
MOUNT PLEASANT CLOUDY    48  44  85 SW12      29.40S
MUSKEGON       LGT RAIN  48  46  93 CALM      29.45S
SOUTH HAVEN    RAIN      52  50  93 W12G17    29.46S
$$
MIZ016>042-241100-
NORTHERN LOWER MICHIGAN

CITY           SKY/WX    TMP DP  RH WIND       PRES   REMARKS
ALPENA         CLOUDY    48  45  89 SW20G31   29.16R
BEAVER ISLAND  LGT RAIN  46  44  93 NW20G36   29.11F
BELLAIRE       LGT RAIN  45  42  88 W9G24     29.24S
CADILLAC       DRIZZLE   43  42  98 W13G21    29.34S
CHARLEVOIX     RAIN      46  46 100 W35G45    29.17F
FRANKFORT      LGT RAIN  47  45  91 NW18G26   29.35F
GAYLORD        LGT RAIN  43  40  89 W25G36    29.17R
GRAYLING       CLOUDY    43  40  88 SW16G30   29.26R
HARBOR SPRINGS RAIN      46  45  95 W10G22    29.07R
HOUGHTON LAKE  CLOUDY    45  41  86 W20G30    29.32R
MANISTEE       LGT RAIN  46  43  89 W14       29.39S
OSCODA         CLOUDY    46  43  88 SW20G29   29.29R
PELLSTON       LGT RAIN  47  46  97 W21G32    29.01F FOG
ROGERS CITY    CLOUDY    47  46  93 SW17G25   29.06R
TRAVERSE CITY  LGT RAIN  46  42  86 W16G24    29.30F
$$
MIZ007>008-015-241100-
EASTERN UPPER MICHIGAN

CITY           SKY/WX    TMP DP  RH WIND       PRES   REMARKS
KINROSS        LGT RAIN  54  52  93 E21       28.98F
MACKINAC ISLAN RAIN      52  52 100 NW3       28.94F
NEWBERRY       LGT SNOW  45  43  93 NW17G30   29.04F
S. S. MARIE    LGT RAIN  56  52  86 E13G30    29.00F
MUNISING         N/A     47  46  97 N32G48    29.26F
$$
MIZ004>006-011>014-085-241100-
CENTRAL UPPER MICHIGAN

CITY           SKY/WX    TMP DP  RH WIND       PRES   REMARKS
MANISTIQUE     LGT SNOW  43  38  81 NW21G31   29.17F
ESCANABA       LGT RAIN  46  43  89 NW14G21   29.32S
MENOMINEE      LGT RAIN  49  44  83 VRB7      29.39F
SAWYER-GWINN   RAIN      42  41  94 N36G44    29.35F
$$
MIZ001>003-009>011-084-241100-
WESTERN UPPER MICHIGAN

CITY           SKY/WX    TMP DP  RH WIND       PRES   REMARKS
IRON MOUNTAIN  LGT RAIN  48  41  76 NW16      29.39F
HOUGHTON       LGT RAIN  49  44  83 N20G33    29.49F
COPPER HARBOR    N/A     49  45  86 E25G37    29.47S
IRONWOOD       CLOUDY    43  42  97 N20G30    29.61R
$$

ABBREVIATIONS USED IN REMARKS
   TC - TEMPERATURE IN CELSIUS
  WCI - WIND CHILL INDEX
   HX - HEAT INDEX
  VSB - VISIBILITY




USA.gov is the U.S. government's official web portal to all federal, state and local government web resources and services.